OpenBCM V1.13 (Linux)

Packet Radio Mailbox

DB0FHN

[JN59NK Nuernberg]

 Login: GUEST





  
CX2SA  > KEPS     05.11.04 13:49l 207 Lines 5446 Bytes #999 (0) @ AMSAT
BID : ORB04309.W
Read: GUEST
Subj: Orbital Elements  04309.WEATHER
Path: DB0FHN<DB0RGB<OK0PPL<DB0RES<ON0BEL<7M3TJZ<EA5AKC<CX2SA
Sent: 041105/1146Z @:CX2SA.LAV.URY.SA #:35119 [Minas] FBB7.00e $:ORB04309.W
From: CX2SA@CX2SA.LAV.URY.SA
To  : KEPS@AMSAT


HR AMSAT ORBITAL ELEMENTS FOR WEATHER SATELLITES
FROM WA5QGD FORT WORTH,TX November 4, 2004
SEND SUBSCRIBE/UNSUBSCRIBE TO majordomo@amsat.org ONLY
BID: ORB04309.W
TO ALL RADIO AMATEURS BT

Satellite: NOAA-10
Catalog number: 16969
Epoch time:      04309.29114420
Element set:     454
Inclination:       98.7621 deg
RA of node:       308.5684 deg
Eccentricity:    0.0013265
Arg of perigee:    70.8926 deg
Mean anomaly:     289.3687 deg
Mean motion:   14.27220220 rev/day
Decay rate:       -6.6e-07 rev/day^2
Epoch rev:           94301
Checksum:              306

Satellite: NOAA-11
Catalog number: 19531
Epoch time:      04309.32332293
Element set:     313
Inclination:       98.8600 deg
RA of node:        32.2493 deg
Eccentricity:    0.0011043
Arg of perigee:   224.0464 deg
Mean anomaly:     135.9850 deg
Mean motion:   14.14734698 rev/day
Decay rate:      -1.44e-06 rev/day^2
Epoch rev:           83113
Checksum:              270

Satellite: NOAA-12
Catalog number: 21263
Epoch time:      04309.42060802
Element set:     798
Inclination:       98.6834 deg
RA of node:       295.7700 deg
Eccentricity:    0.0012910
Arg of perigee:     7.1242 deg
Mean anomaly:     353.0128 deg
Mean motion:   14.25424631 rev/day
Decay rate:       2.25e-06 rev/day^2
Epoch rev:           70022
Checksum:              260

Satellite: MET-3/5
Catalog number: 21655
Epoch time:      04308.92632533
Element set:    0662
Inclination:      082.5515 deg
RA of node:       317.7987 deg
Eccentricity:    0.0014481
Arg of perigee:   076.2913 deg
Mean anomaly:     283.9820 deg
Mean motion:   13.16996819 rev/day
Decay rate:        5.1e-07 rev/day^2
Epoch rev:           63566
Checksum:              331

Satellite: MET-2/21
Catalog number: 22782
Epoch time:      04309.65418480
Element set:      47
Inclination:       82.5475 deg
RA of node:        79.0954 deg
Eccentricity:    0.0022800
Arg of perigee:    36.6318 deg
Mean anomaly:     323.6391 deg
Mean motion:   13.83573247 rev/day
Decay rate:       1.58e-06 rev/day^2
Epoch rev:           56452
Checksum:              309

Satellite: OKEAN-4
Catalog number: 23317
Epoch time:      04309.86399278
Element set:     463
Inclination:       82.5365 deg
RA of node:       106.5191 deg
Eccentricity:    0.0022944
Arg of perigee:   151.5158 deg
Mean anomaly:     208.7324 deg
Mean motion:   14.81937032 rev/day
Decay rate:      1.006e-05 rev/day^2
Epoch rev:           54268
Checksum:              305

Satellite: NOAA-14
Catalog number: 23455
Epoch time:      04309.26800678
Element set:     335
Inclination:       99.1240 deg
RA of node:       347.5646 deg
Eccentricity:    0.0008519
Arg of perigee:   273.4061 deg
Mean anomaly:      86.6143 deg
Mean motion:   14.13502272 rev/day
Decay rate:       -6.7e-07 rev/day^2
Epoch rev:           50772
Checksum:              295

Satellite: SICH-1
Catalog number: 23657
Epoch time:      04308.92391699
Element set:    0314
Inclination:      082.5274 deg
RA of node:       248.1915 deg
Eccentricity:    0.0024823
Arg of perigee:   139.1464 deg
Mean anomaly:     221.1616 deg
Mean motion:   14.80965643 rev/day
Decay rate:       8.90e-06 rev/day^2
Epoch rev:           49461
Checksum:              316

Satellite: NOAA-15
Catalog number: 25338
Epoch time:      04309.23020945
Element set:     784
Inclination:       98.5185 deg
RA of node:       318.3904 deg
Eccentricity:    0.0009702
Arg of perigee:   298.8410 deg
Mean anomaly:      61.1800 deg
Mean motion:   14.24462388 rev/day
Decay rate:       1.07e-06 rev/day^2
Epoch rev:           33672
Checksum:              298

Satellite: RESURS
Catalog number: 25394
Epoch time:      04309.23256205
Element set:     939
Inclination:       98.5689 deg
RA of node:        18.5316 deg
Eccentricity:    0.0002415
Arg of perigee:    87.2719 deg
Mean anomaly:     272.8736 deg
Mean motion:   14.24031481 rev/day
Decay rate:        9.8e-07 rev/day^2
Epoch rev:           32843
Checksum:              310

Satellite: FENGYUN1
Catalog number: 25730
Epoch time:      04309.61365615
Element set:     271
Inclination:       98.6076 deg
RA of node:       314.4300 deg
Eccentricity:    0.0014600
Arg of perigee:    24.7758 deg
Mean anomaly:     335.4114 deg
Mean motion:   14.11780705 rev/day
Decay rate:      -3.05e-06 rev/day^2
Epoch rev:           28282
Checksum:              267

Satellite: OKEAN-0
Catalog number: 25860
Epoch time:      04308.94233189
Element set:    0302
Inclination:      097.7832 deg
RA of node:       338.4634 deg
Eccentricity:    0.0001126
Arg of perigee:   127.0441 deg
Mean anomaly:     233.0870 deg
Mean motion:   14.73139512 rev/day
Decay rate:       3.55e-06 rev/day^2
Epoch rev:           28484
Checksum:              284

Satellite: NOAA-16
Catalog number: 26536
Epoch time:      04309.19844700
Element set:      86
Inclination:       98.9813 deg
RA of node:       260.7424 deg
Eccentricity:    0.0010440
Arg of perigee:   346.6761 deg
Mean anomaly:      13.4108 deg
Mean motion:   14.12171222 rev/day
Decay rate:       3.37e-06 rev/day^2
Epoch rev:           21230
Checksum:              268

Satellite: NOAA-17
Catalog number: 27453
Epoch time:      04309.31447040
Element set:     108
Inclination:       98.6863 deg
RA of node:        19.9643 deg
Eccentricity:    0.0011334
Arg of perigee:   352.2673 deg
Mean anomaly:       7.8371 deg
Mean motion:   14.23588786 rev/day
Decay rate:       2.45e-06 rev/day^2
Epoch rev:           12284
Checksum:              305



Read previous mail | Read next mail


 11.09.2026 06:59:54lGo back Go up